Year,Month,Day,Hour,Minute,Value (Times are PST for temperature in C)
2014,10,04,00,00,15.50
2014,10,04,00,01,15.40
2014,10,04,00,02,15.40
2014,10,04,00,03,15.40
2014,10,04,00,04,15.40
2014,10,04,00,05,15.40
2014,10,04,00,06,15.40
2014,10,04,00,07,15.40
2014,10,04,00,08,15.40
2014,10,04,00,09,15.40
2014,10,04,00,10,15.40
2014,10,04,00,11,15.40
2014,10,04,00,12,15.50
2014,10,04,00,13,15.50
2014,10,04,00,14,15.50
2014,10,04,00,15,15.50
2014,10,04,00,16,15.50
2014,10,04,00,17,15.50
2014,10,04,00,18,15.40
2014,10,04,00,19,15.40
2014,10,04,00,20,15.40
2014,10,04,00,21,15.40
2014,10,04,00,22,15.50
2014,10,04,00,23,15.40
2014,10,04,00,24,15.50
2014,10,04,00,25,15.50
2014,10,04,00,26,15.50
2014,10,04,00,27,15.50
2014,10,04,00,28,15.50
2014,10,04,00,29,15.50
2014,10,04,00,30,15.50
2014,10,04,00,31,15.50
2014,10,04,00,32,15.50
2014,10,04,00,33,15.50
2014,10,04,00,34,15.50
2014,10,04,00,35,15.50
2014,10,04,00,36,15.40
2014,10,04,00,37,15.50
2014,10,04,00,38,15.40
2014,10,04,00,39,15.40
2014,10,04,00,40,15.40
2014,10,04,00,41,15.40
2014,10,04,00,42,15.40
2014,10,04,00,43,15.40
2014,10,04,00,44,15.40
2014,10,04,00,45,15.40
2014,10,04,00,46,15.40
2014,10,04,00,47,15.30
2014,10,04,00,48,15.30
2014,10,04,00,49,15.30
2014,10,04,00,50,15.30
2014,10,04,00,51,15.30
2014,10,04,00,52,15.30
2014,10,04,00,53,15.30
2014,10,04,00,54,15.30
2014,10,04,00,55,15.30
2014,10,04,00,56,15.30
2014,10,04,00,57,15.30
2014,10,04,00,58,15.30
2014,10,04,00,59,15.30
2014,10,04,01,00,15.30
2014,10,04,01,01,15.30
2014,10,04,01,02,15.30
2014,10,04,01,03,15.30
2014,10,04,01,04,15.40
2014,10,04,01,05,15.40
2014,10,04,01,06,15.40
2014,10,04,01,07,15.40
2014,10,04,01,08,15.40
2014,10,04,01,09,15.50
2014,10,04,01,10,15.50
2014,10,04,01,11,15.50
2014,10,04,01,12,15.50
2014,10,04,01,13,15.50
2014,10,04,01,14,15.60
2014,10,04,01,15,15.60
2014,10,04,01,16,15.60
2014,10,04,01,17,15.60
2014,10,04,01,18,15.70
2014,10,04,01,19,15.70
2014,10,04,01,20,15.70
2014,10,04,01,21,15.80
2014,10,04,01,22,15.80
2014,10,04,01,23,15.80
2014,10,04,01,24,15.80
2014,10,04,01,25,15.80
2014,10,04,01,26,15.80
2014,10,04,01,27,15.80
2014,10,04,01,28,15.80
2014,10,04,01,29,15.80
2014,10,04,01,30,15.80
2014,10,04,01,31,15.70
2014,10,04,01,32,15.70
2014,10,04,01,33,15.60
2014,10,04,01,34,15.60
2014,10,04,01,35,15.50
2014,10,04,01,36,15.50
2014,10,04,01,37,15.50
2014,10,04,01,38,15.40
2014,10,04,01,39,15.40
2014,10,04,01,40,15.40
2014,10,04,01,41,15.40
2014,10,04,01,42,15.40
2014,10,04,01,43,15.40
2014,10,04,01,44,15.40
2014,10,04,01,45,15.40
2014,10,04,01,46,15.50
2014,10,04,01,47,15.50
2014,10,04,01,48,15.50
2014,10,04,01,49,15.60
2014,10,04,01,50,15.60
2014,10,04,01,51,15.60
2014,10,04,01,52,15.50
2014,10,04,01,53,15.50
2014,10,04,01,54,15.50
2014,10,04,01,55,15.40
2014,10,04,01,56,15.40
2014,10,04,01,57,15.40
2014,10,04,01,58,15.30
2014,10,04,01,59,15.30
2014,10,04,02,00,15.30
2014,10,04,02,01,15.20
2014,10,04,02,02,15.20
2014,10,04,02,03,15.20
2014,10,04,02,04,15.20
2014,10,04,02,05,15.20
2014,10,04,02,06,15.20
2014,10,04,02,07,15.20
2014,10,04,02,08,15.20
2014,10,04,02,09,15.20
2014,10,04,02,10,15.20
2014,10,04,02,11,15.10
2014,10,04,02,12,15.00
2014,10,04,02,13,15.00
2014,10,04,02,14,15.00
2014,10,04,02,15,15.00
2014,10,04,02,16,15.00
2014,10,04,02,17,15.00
2014,10,04,02,18,15.00
2014,10,04,02,19,14.90
2014,10,04,02,20,14.80
2014,10,04,02,21,14.70
2014,10,04,02,22,14.60
2014,10,04,02,23,14.60
2014,10,04,02,24,14.50
2014,10,04,02,25,14.40
2014,10,04,02,26,14.40
2014,10,04,02,27,14.30
2014,10,04,02,28,14.30
2014,10,04,02,29,14.30
2014,10,04,02,30,14.20
2014,10,04,02,31,14.20
2014,10,04,02,32,14.20
2014,10,04,02,33,14.10
2014,10,04,02,34,14.10
2014,10,04,02,35,14.10
2014,10,04,02,36,14.00
2014,10,04,02,37,14.00
2014,10,04,02,38,13.90
2014,10,04,02,39,13.90
2014,10,04,02,40,13.80
2014,10,04,02,41,13.80
2014,10,04,02,42,13.80
2014,10,04,02,43,13.70
2014,10,04,02,44,13.70
2014,10,04,02,45,13.70
2014,10,04,02,46,13.60
2014,10,04,02,47,13.60
2014,10,04,02,48,13.60
2014,10,04,02,49,13.50
2014,10,04,02,50,13.50
2014,10,04,02,51,13.50
2014,10,04,02,52,13.40
2014,10,04,02,53,13.40
2014,10,04,02,54,13.40
2014,10,04,02,55,13.40
2014,10,04,02,56,13.40
2014,10,04,02,57,13.30
2014,10,04,02,58,13.30
2014,10,04,02,59,13.30
2014,10,04,03,00,13.30
2014,10,04,03,01,13.20
2014,10,04,03,02,13.20
2014,10,04,03,06,13.10
2014,10,04,03,07,13.10
2014,10,04,03,08,13.10
2014,10,04,03,09,13.10
2014,10,04,03,10,13.00
2014,10,04,03,11,13.00
2014,10,04,03,12,13.00
2014,10,04,03,13,13.00
2014,10,04,03,14,13.00
2014,10,04,03,15,13.00
2014,10,04,03,16,13.00
2014,10,04,03,17,13.00
2014,10,04,03,18,12.90
2014,10,04,03,19,12.90
2014,10,04,03,20,12.90
2014,10,04,03,21,12.90
2014,10,04,03,22,12.90
2014,10,04,03,23,13.00
2014,10,04,03,24,13.00
2014,10,04,03,25,12.90
2014,10,04,03,26,12.90
2014,10,04,03,27,12.90
2014,10,04,03,28,12.90
2014,10,04,03,29,12.90
2014,10,04,03,30,12.90
2014,10,04,03,31,12.90
2014,10,04,03,32,12.90
2014,10,04,03,33,12.90
2014,10,04,03,34,12.90
2014,10,04,03,35,12.90
2014,10,04,03,36,12.90
2014,10,04,03,37,12.90
2014,10,04,03,38,12.90
2014,10,04,03,39,12.90
2014,10,04,03,40,13.00
2014,10,04,03,41,13.10
2014,10,04,03,42,13.10
2014,10,04,03,43,13.10
2014,10,04,03,44,13.20
2014,10,04,03,45,13.20
2014,10,04,03,46,13.20
2014,10,04,03,47,13.20
2014,10,04,03,48,13.20
2014,10,04,03,49,13.20
2014,10,04,03,50,13.20
2014,10,04,03,51,13.20
2014,10,04,03,52,13.20
2014,10,04,03,53,13.20
2014,10,04,03,54,13.20
2014,10,04,03,55,13.10
2014,10,04,03,56,13.10
2014,10,04,03,57,13.20
2014,10,04,03,58,13.20
2014,10,04,03,59,13.30
2014,10,04,04,00,13.30
2014,10,04,04,01,13.30
2014,10,04,04,02,13.40
2014,10,04,04,03,13.30
2014,10,04,04,04,13.30
2014,10,04,04,05,13.30
2014,10,04,04,06,13.30
2014,10,04,04,07,13.30
2014,10,04,04,08,13.30
2014,10,04,04,09,13.30
2014,10,04,04,10,13.30
2014,10,04,04,11,13.30
2014,10,04,04,12,13.30
2014,10,04,04,13,13.30
2014,10,04,04,14,13.30
2014,10,04,04,15,13.30
2014,10,04,04,16,13.40
2014,10,04,04,17,13.40
2014,10,04,04,18,13.40
2014,10,04,04,19,13.40
2014,10,04,04,20,13.40
2014,10,04,04,21,13.40
2014,10,04,04,22,13.40
2014,10,04,04,23,13.40
2014,10,04,04,24,13.40
2014,10,04,04,25,13.40
2014,10,04,04,26,13.40
2014,10,04,04,27,13.40
2014,10,04,04,28,13.40
2014,10,04,04,29,13.50
2014,10,04,04,30,13.50
2014,10,04,04,31,13.50
2014,10,04,04,32,13.50
2014,10,04,04,33,13.50
2014,10,04,04,34,13.50
2014,10,04,04,35,13.50
2014,10,04,04,36,13.50
2014,10,04,04,37,13.50
2014,10,04,04,38,13.60
2014,10,04,04,39,13.60
2014,10,04,04,40,13.60
2014,10,04,04,41,13.70
2014,10,04,04,42,13.70
2014,10,04,04,43,13.70
2014,10,04,04,44,13.70
2014,10,04,04,45,13.70
2014,10,04,04,46,13.70
2014,10,04,04,47,13.70
2014,10,04,04,48,13.70
2014,10,04,04,49,13.70
2014,10,04,04,50,13.70
2014,10,04,04,51,13.70
2014,10,04,04,52,13.70
2014,10,04,04,53,13.70
2014,10,04,04,54,13.60
2014,10,04,04,55,13.60
2014,10,04,04,56,13.60
2014,10,04,04,57,13.60
2014,10,04,04,58,13.50
2014,10,04,04,59,13.50
2014,10,04,05,00,13.50
2014,10,04,05,01,13.50
2014,10,04,05,02,13.40
2014,10,04,05,03,13.40
2014,10,04,05,04,13.50
2014,10,04,05,05,13.50
2014,10,04,05,06,13.50
2014,10,04,05,07,13.50
2014,10,04,05,08,13.50
2014,10,04,05,09,13.50
2014,10,04,05,10,13.50
2014,10,04,05,11,13.50
2014,10,04,05,12,13.50
2014,10,04,05,13,13.50
2014,10,04,05,14,13.60
2014,10,04,05,15,13.60
2014,10,04,05,16,13.70
2014,10,04,05,17,13.70
2014,10,04,05,18,13.70
2014,10,04,05,19,13.70
2014,10,04,05,20,13.70
2014,10,04,05,21,13.70
2014,10,04,05,22,13.70
2014,10,04,05,23,13.70
2014,10,04,05,24,13.70
2014,10,04,05,25,13.70
2014,10,04,05,26,13.70
2014,10,04,05,27,13.70
2014,10,04,05,28,13.70
2014,10,04,05,29,13.60
2014,10,04,05,30,13.60
2014,10,04,05,31,13.60
2014,10,04,05,32,13.60
2014,10,04,05,33,13.60
2014,10,04,05,34,13.60
2014,10,04,05,35,13.60
2014,10,04,05,36,13.60
2014,10,04,05,37,13.60
2014,10,04,05,38,13.60
2014,10,04,05,39,13.60
2014,10,04,05,40,13.50
2014,10,04,05,41,13.50
2014,10,04,05,42,13.50
2014,10,04,05,43,13.50
2014,10,04,05,44,13.50
2014,10,04,05,45,13.50
2014,10,04,05,46,13.50
2014,10,04,05,47,13.60
2014,10,04,05,48,13.60
2014,10,04,05,49,13.60
2014,10,04,05,50,13.60
2014,10,04,05,51,13.60
2014,10,04,05,52,13.60
2014,10,04,05,53,13.70
2014,10,04,05,54,13.70
2014,10,04,05,55,13.70
2014,10,04,05,56,13.70
2014,10,04,05,57,13.70
2014,10,04,05,58,13.80
2014,10,04,05,59,13.80
2014,10,04,06,00,13.90
2014,10,04,06,01,13.90
2014,10,04,06,02,14.00
2014,10,04,06,03,14.10
2014,10,04,06,04,14.10
2014,10,04,06,05,14.10
2014,10,04,06,06,14.20
2014,10,04,06,07,14.20
2014,10,04,06,08,14.10
2014,10,04,06,09,14.10
2014,10,04,06,10,14.00
2014,10,04,06,11,14.00
2014,10,04,06,12,13.90
2014,10,04,06,13,13.90
2014,10,04,06,14,13.80
2014,10,04,06,15,13.80
2014,10,04,06,16,13.80
2014,10,04,06,17,13.80
2014,10,04,06,18,13.80
2014,10,04,06,19,13.80
2014,10,04,06,20,13.80
2014,10,04,06,21,13.80
2014,10,04,06,22,13.80
2014,10,04,06,23,13.70
2014,10,04,06,24,13.70
2014,10,04,06,25,13.70
2014,10,04,06,26,13.70
2014,10,04,06,27,13.70
2014,10,04,06,28,13.60
2014,10,04,06,29,13.60
2014,10,04,06,30,13.70
2014,10,04,06,31,13.70
2014,10,04,06,32,13.70
2014,10,04,06,33,13.80
2014,10,04,06,34,13.80
2014,10,04,06,35,13.80
2014,10,04,06,36,13.90
2014,10,04,06,37,13.90
2014,10,04,06,38,14.00
2014,10,04,06,39,14.10
2014,10,04,06,40,14.20
2014,10,04,06,41,14.30
2014,10,04,06,42,14.40
2014,10,04,06,43,14.50
2014,10,04,06,44,14.60
2014,10,04,06,45,14.60
2014,10,04,06,46,14.70
2014,10,04,06,47,14.70
2014,10,04,06,48,14.80
2014,10,04,06,49,14.80
2014,10,04,06,50,14.80
2014,10,04,06,51,14.90
2014,10,04,06,52,14.90
2014,10,04,06,53,14.90
2014,10,04,06,54,14.90
2014,10,04,06,55,14.90
2014,10,04,06,56,14.80
2014,10,04,06,57,14.90
2014,10,04,06,58,14.80
2014,10,04,06,59,14.80
2014,10,04,07,00,14.80
2014,10,04,07,01,14.80
2014,10,04,07,02,14.80
2014,10,04,07,03,14.70
2014,10,04,07,04,14.70
2014,10,04,07,05,14.70
2014,10,04,07,06,14.70
2014,10,04,07,07,14.70
2014,10,04,07,08,14.70
2014,10,04,07,09,14.70
2014,10,04,07,10,14.70
2014,10,04,07,11,14.60
2014,10,04,07,12,14.60
2014,10,04,07,13,14.60
2014,10,04,07,14,14.60
2014,10,04,07,15,14.60
2014,10,04,07,16,14.60
2014,10,04,07,17,14.60
2014,10,04,07,18,14.60
2014,10,04,07,19,14.70
2014,10,04,07,20,14.70
2014,10,04,07,21,14.70
2014,10,04,07,22,14.60
2014,10,04,07,23,14.60
2014,10,04,07,24,14.60
2014,10,04,07,25,14.60
2014,10,04,07,26,14.60
2014,10,04,07,27,14.60
2014,10,04,07,28,14.60
2014,10,04,07,29,14.60
2014,10,04,07,30,14.60
2014,10,04,07,31,14.50
2014,10,04,07,32,14.40
2014,10,04,07,33,14.40
2014,10,04,07,34,14.40
2014,10,04,07,35,14.40
2014,10,04,07,36,14.50
2014,10,04,07,37,14.50
2014,10,04,07,38,14.50
2014,10,04,07,39,14.50
2014,10,04,07,40,14.60
2014,10,04,07,41,14.60
2014,10,04,07,42,14.70
2014,10,04,07,43,14.70
2014,10,04,07,44,14.70
2014,10,04,07,45,14.70
2014,10,04,07,46,14.70
2014,10,04,07,47,14.70
2014,10,04,07,48,14.70
2014,10,04,07,49,14.70
2014,10,04,07,50,14.70
2014,10,04,07,51,14.70
2014,10,04,07,52,14.80
2014,10,04,07,53,14.80
2014,10,04,07,54,14.80
2014,10,04,07,55,14.80
2014,10,04,07,56,14.80
2014,10,04,07,57,14.80
2014,10,04,07,58,14.90
2014,10,04,07,59,14.90
2014,10,04,08,00,14.90
2014,10,04,08,01,15.00
2014,10,04,08,02,15.00
2014,10,04,08,03,15.00
2014,10,04,08,04,15.00
2014,10,04,08,05,15.00
2014,10,04,08,06,15.00
2014,10,04,08,07,15.00
2014,10,04,08,08,15.00
2014,10,04,08,09,15.00
2014,10,04,08,10,15.10
2014,10,04,08,11,15.20
2014,10,04,08,12,15.20
2014,10,04,08,13,15.30
2014,10,04,08,14,15.30
2014,10,04,08,15,15.40
2014,10,04,08,16,15.40
2014,10,04,08,17,15.50
2014,10,04,08,18,15.50
2014,10,04,08,19,15.60
2014,10,04,08,20,15.60
2014,10,04,08,21,15.60
2014,10,04,08,22,15.60
2014,10,04,08,23,15.60
2014,10,04,08,24,15.60
2014,10,04,08,25,15.60
2014,10,04,08,26,15.60
2014,10,04,08,27,15.50
2014,10,04,08,28,15.50
2014,10,04,08,29,15.50
2014,10,04,08,30,15.50
2014,10,04,08,31,15.40
2014,10,04,08,32,15.40
2014,10,04,08,33,15.40
2014,10,04,08,34,15.40
2014,10,04,08,35,15.50
2014,10,04,08,36,15.50
2014,10,04,08,37,15.50
2014,10,04,08,38,15.50
2014,10,04,08,39,15.50
2014,10,04,08,40,15.50
2014,10,04,08,41,15.50
2014,10,04,08,42,15.60
2014,10,04,08,43,15.60
2014,10,04,08,44,15.60
2014,10,04,08,45,15.60
2014,10,04,08,46,15.60
2014,10,04,08,47,15.60
2014,10,04,08,48,15.60
2014,10,04,08,49,15.60
2014,10,04,08,50,15.60
2014,10,04,08,51,15.60
2014,10,04,08,52,15.50
2014,10,04,08,53,15.50
2014,10,04,08,54,15.50
2014,10,04,08,55,15.40
2014,10,04,08,56,15.40
2014,10,04,08,57,15.40
2014,10,04,08,58,15.40
2014,10,04,08,59,15.40
2014,10,04,09,00,15.40
2014,10,04,09,01,15.40
2014,10,04,09,02,15.40
2014,10,04,09,03,15.40
2014,10,04,09,04,15.40
2014,10,04,09,05,15.40
2014,10,04,09,06,15.40
2014,10,04,09,07,15.40
2014,10,04,09,08,15.40
2014,10,04,09,09,15.40
2014,10,04,09,10,15.40
2014,10,04,09,11,15.40
2014,10,04,09,12,15.40
2014,10,04,09,13,15.40
2014,10,04,09,14,15.40
2014,10,04,09,15,15.40
2014,10,04,09,16,15.40
2014,10,04,09,17,15.40
2014,10,04,09,18,15.40
2014,10,04,09,19,15.40
2014,10,04,09,20,15.40
2014,10,04,09,21,15.40
2014,10,04,09,22,15.40
2014,10,04,09,23,15.40
2014,10,04,09,24,15.40
2014,10,04,09,25,15.40
2014,10,04,09,26,15.40
2014,10,04,09,27,15.40
2014,10,04,09,28,15.50
2014,10,04,09,29,15.40
2014,10,04,09,30,15.40
2014,10,04,09,31,15.40
2014,10,04,09,32,15.40
2014,10,04,09,33,15.50
2014,10,04,09,34,15.50
2014,10,04,09,35,15.50
2014,10,04,09,36,15.50
2014,10,04,09,37,15.60
2014,10,04,09,38,15.60
2014,10,04,09,39,15.60
2014,10,04,09,40,15.60
2014,10,04,09,41,15.60
2014,10,04,09,42,15.60
2014,10,04,09,43,15.60
2014,10,04,09,44,15.60
2014,10,04,09,45,15.60
2014,10,04,09,46,15.60
2014,10,04,09,47,15.60
2014,10,04,09,48,15.60
2014,10,04,09,49,15.60
2014,10,04,09,50,15.60
2014,10,04,09,51,15.60
2014,10,04,09,52,15.60
2014,10,04,09,53,15.60
2014,10,04,09,54,15.60
2014,10,04,09,55,15.60
2014,10,04,09,56,15.60
2014,10,04,09,57,15.60
2014,10,04,09,58,15.60
2014,10,04,09,59,15.60
2014,10,04,10,00,15.60
2014,10,04,10,01,15.60
2014,10,04,10,02,15.60
2014,10,04,10,03,15.70
2014,10,04,10,04,15.70
2014,10,04,10,05,15.70
2014,10,04,10,06,15.70
2014,10,04,10,07,15.70
2014,10,04,10,08,15.80
2014,10,04,10,09,15.80
2014,10,04,10,10,15.80
2014,10,04,10,11,15.80
2014,10,04,10,12,15.80
2014,10,04,10,13,15.90
2014,10,04,10,14,15.90
2014,10,04,10,15,15.90
2014,10,04,10,16,15.90
2014,10,04,10,17,15.90
2014,10,04,10,18,15.90
2014,10,04,10,19,15.90
2014,10,04,10,20,15.90
2014,10,04,10,21,15.90
2014,10,04,10,22,15.90
2014,10,04,10,23,15.90
2014,10,04,10,24,15.90
2014,10,04,10,25,15.90
2014,10,04,10,26,15.90
2014,10,04,10,27,15.90
2014,10,04,10,28,15.90
2014,10,04,10,29,15.90
2014,10,04,10,30,16.00
2014,10,04,10,31,16.00
2014,10,04,10,32,16.00
2014,10,04,10,33,16.00
2014,10,04,10,34,16.00
2014,10,04,10,35,16.00
2014,10,04,10,36,16.10
2014,10,04,10,37,16.10
2014,10,04,10,38,16.20
2014,10,04,10,39,16.20
2014,10,04,10,40,16.20
2014,10,04,10,41,16.30
2014,10,04,10,42,16.30
2014,10,04,10,43,16.30
2014,10,04,10,44,16.40
2014,10,04,10,45,16.40
2014,10,04,10,46,16.40
2014,10,04,10,47,16.50
2014,10,04,10,48,16.50
2014,10,04,10,49,16.50
2014,10,04,10,50,16.50
2014,10,04,10,51,16.50
2014,10,04,10,52,16.50
2014,10,04,10,53,16.50
2014,10,04,10,54,16.50
2014,10,04,10,55,16.50
2014,10,04,10,56,16.50
2014,10,04,10,57,16.50
2014,10,04,10,58,16.40
2014,10,04,10,59,16.40
2014,10,04,11,00,16.40
2014,10,04,11,01,16.40
2014,10,04,11,02,16.40
2014,10,04,11,03,16.40
2014,10,04,11,04,16.40
2014,10,04,11,05,16.50
2014,10,04,11,06,16.50
2014,10,04,11,07,16.50
2014,10,04,11,08,16.50
2014,10,04,11,09,16.50
2014,10,04,11,10,16.50
2014,10,04,11,11,16.60
2014,10,04,11,12,16.60
2014,10,04,11,13,16.60
2014,10,04,11,14,16.60
2014,10,04,11,15,16.60
2014,10,04,11,16,16.60
2014,10,04,11,17,16.60
2014,10,04,11,18,16.70
2014,10,04,11,19,16.70
2014,10,04,11,20,16.70
2014,10,04,11,21,16.80
2014,10,04,11,22,16.80
2014,10,04,11,23,16.80
2014,10,04,11,24,16.80
2014,10,04,11,25,16.80
2014,10,04,11,26,16.80
2014,10,04,11,27,16.80
2014,10,04,11,28,16.70
2014,10,04,11,29,16.70
2014,10,04,11,30,16.70
2014,10,04,11,31,16.70
2014,10,04,11,32,16.70
2014,10,04,11,33,16.70
2014,10,04,11,34,16.70
2014,10,04,11,35,16.70
2014,10,04,11,36,16.80
2014,10,04,11,37,16.80
2014,10,04,11,38,16.80
2014,10,04,11,39,16.90
2014,10,04,11,40,16.90
2014,10,04,11,41,16.90
2014,10,04,11,42,16.90
2014,10,04,11,43,16.80
2014,10,04,11,44,16.80
2014,10,04,11,45,16.80
2014,10,04,11,46,16.80
2014,10,04,11,47,16.70
2014,10,04,11,48,16.70
2014,10,04,11,49,16.70
2014,10,04,11,50,16.70
2014,10,04,11,51,16.70
2014,10,04,11,52,16.70
2014,10,04,11,53,16.70
2014,10,04,11,54,16.70
2014,10,04,11,55,16.80
2014,10,04,11,56,16.90
2014,10,04,11,57,17.00
2014,10,04,11,58,17.10
2014,10,04,11,59,17.10
2014,10,04,12,00,17.20
2014,10,04,12,01,17.10
2014,10,04,12,02,17.10
2014,10,04,12,03,17.10
2014,10,04,12,04,17.00
2014,10,04,12,05,17.00
2014,10,04,12,06,17.00
2014,10,04,12,07,17.00
2014,10,04,12,08,17.00
2014,10,04,12,09,17.00
2014,10,04,12,10,17.10
2014,10,04,12,11,17.10
2014,10,04,12,12,17.20
2014,10,04,12,13,17.20
2014,10,04,12,14,17.10
2014,10,04,12,15,17.10
2014,10,04,12,16,17.00
2014,10,04,12,17,16.90
2014,10,04,12,18,16.90
2014,10,04,12,19,16.90
2014,10,04,12,20,16.90
2014,10,04,12,21,16.90
2014,10,04,12,22,16.90
2014,10,04,12,23,16.90
2014,10,04,12,24,16.90
2014,10,04,12,25,16.90
2014,10,04,12,26,16.80
2014,10,04,12,27,16.80
2014,10,04,12,28,16.90
2014,10,04,12,29,16.90
2014,10,04,12,30,16.80
2014,10,04,12,31,16.70
2014,10,04,12,32,16.70
2014,10,04,12,33,16.70
2014,10,04,12,34,16.70
2014,10,04,12,35,16.70
2014,10,04,12,36,16.70
2014,10,04,12,37,16.70
2014,10,04,12,38,16.70
2014,10,04,12,39,16.60
2014,10,04,12,40,16.50
2014,10,04,12,41,16.50
2014,10,04,12,42,16.50
2014,10,04,12,43,16.50
2014,10,04,12,44,16.60
2014,10,04,12,45,16.60
2014,10,04,12,46,16.60
2014,10,04,12,47,16.60
2014,10,04,12,48,16.70
2014,10,04,12,49,16.80
2014,10,04,12,50,16.80
2014,10,04,12,51,16.90
2014,10,04,12,52,17.00
2014,10,04,12,53,17.00
2014,10,04,12,54,17.10
2014,10,04,12,55,17.10
2014,10,04,12,56,17.10
2014,10,04,12,57,17.20
2014,10,04,12,58,17.20
2014,10,04,12,59,17.30
2014,10,04,13,00,17.30
2014,10,04,13,01,17.30
2014,10,04,13,02,17.30
2014,10,04,13,03,17.40
2014,10,04,13,04,17.40
2014,10,04,13,05,17.40
2014,10,04,13,06,17.30
2014,10,04,13,07,17.30
2014,10,04,13,08,17.30
2014,10,04,13,09,17.30
2014,10,04,13,10,17.30
2014,10,04,13,11,17.30
2014,10,04,13,12,17.20
2014,10,04,13,13,17.10
2014,10,04,13,14,17.00
2014,10,04,13,15,16.90
2014,10,04,13,16,16.80
2014,10,04,13,17,16.90
2014,10,04,13,18,16.90
2014,10,04,13,19,16.90
2014,10,04,13,20,16.90
2014,10,04,13,21,16.80
2014,10,04,13,22,16.80
2014,10,04,13,23,16.80
2014,10,04,13,24,16.80
2014,10,04,13,25,16.80
2014,10,04,13,26,16.80
2014,10,04,13,27,16.60
2014,10,04,13,28,16.50
2014,10,04,13,29,16.40
2014,10,04,13,30,16.30
2014,10,04,13,31,16.20
2014,10,04,13,32,16.20
2014,10,04,13,33,16.20
2014,10,04,13,34,16.30
2014,10,04,13,35,16.30
2014,10,04,13,36,16.30
2014,10,04,13,37,16.30
2014,10,04,13,38,16.40
2014,10,04,13,39,16.40
2014,10,04,13,40,16.50
2014,10,04,13,41,16.50
2014,10,04,13,42,16.60
2014,10,04,13,43,16.70
2014,10,04,13,44,16.70
2014,10,04,13,45,16.80
2014,10,04,13,46,16.70
2014,10,04,13,47,16.70
2014,10,04,13,48,16.70
2014,10,04,13,49,16.70
2014,10,04,13,50,16.70
2014,10,04,13,51,16.70
2014,10,04,13,52,16.60
2014,10,04,13,53,16.60
2014,10,04,13,54,16.50
2014,10,04,13,55,16.50
2014,10,04,13,56,16.40
2014,10,04,13,57,16.40
2014,10,04,13,58,16.40
2014,10,04,13,59,16.40
2014,10,04,14,00,16.40
2014,10,04,14,01,16.40
2014,10,04,14,02,16.40
2014,10,04,14,03,16.40
2014,10,04,14,04,16.40
2014,10,04,14,05,16.40
2014,10,04,14,06,16.40
2014,10,04,14,07,16.50
2014,10,04,14,08,16.60
2014,10,04,14,09,16.70
2014,10,04,14,10,16.80
2014,10,04,14,11,16.80
2014,10,04,14,12,16.80
2014,10,04,14,13,16.80
2014,10,04,14,14,16.80
2014,10,04,14,15,16.80
2014,10,04,14,16,16.80
2014,10,04,14,17,16.80
2014,10,04,14,18,16.90
2014,10,04,14,19,16.90
2014,10,04,14,20,17.00
2014,10,04,14,21,17.00
2014,10,04,14,22,17.10
2014,10,04,14,23,17.20
2014,10,04,14,24,17.20
2014,10,04,14,25,17.20
2014,10,04,14,26,17.20
2014,10,04,14,27,17.20
2014,10,04,14,28,17.20
2014,10,04,14,29,17.20
2014,10,04,14,30,17.20
2014,10,04,14,31,17.20
2014,10,04,14,32,17.20
2014,10,04,14,33,17.10
2014,10,04,14,34,17.00
2014,10,04,14,35,17.00
2014,10,04,14,36,16.90
2014,10,04,14,37,16.80
2014,10,04,14,38,16.80
2014,10,04,14,39,16.80
2014,10,04,14,40,16.80
2014,10,04,14,41,16.90
2014,10,04,14,42,16.90
2014,10,04,14,43,17.00
2014,10,04,14,44,17.00
2014,10,04,14,45,17.10
2014,10,04,14,46,17.20
2014,10,04,14,47,17.20
2014,10,04,14,48,17.20
2014,10,04,14,49,17.20
2014,10,04,14,50,17.20
2014,10,04,14,51,17.20
2014,10,04,14,52,17.30
2014,10,04,14,53,17.30
2014,10,04,14,54,17.40
2014,10,04,14,55,17.40
2014,10,04,14,56,17.40
2014,10,04,14,57,17.50
2014,10,04,14,58,17.70
2014,10,04,14,59,17.80
2014,10,04,15,00,17.80
2014,10,04,15,01,17.80
2014,10,04,15,02,17.70
2014,10,04,15,03,17.70
2014,10,04,15,04,17.70
2014,10,04,15,05,17.70
2014,10,04,15,06,17.70
2014,10,04,15,07,17.60
2014,10,04,15,08,17.60
2014,10,04,15,09,17.50
2014,10,04,15,10,17.50
2014,10,04,15,11,17.50
2014,10,04,15,12,17.60
2014,10,04,15,13,17.60
2014,10,04,15,14,17.60
2014,10,04,15,15,17.50
2014,10,04,15,16,17.40
2014,10,04,15,17,17.40
2014,10,04,15,18,17.60
2014,10,04,15,19,17.80
2014,10,04,15,20,18.00
2014,10,04,15,21,18.10
2014,10,04,15,22,18.00
2014,10,04,15,23,17.90
2014,10,04,15,24,17.80
2014,10,04,15,25,17.80
2014,10,04,15,26,17.70
2014,10,04,15,27,17.70
2014,10,04,15,28,17.70
2014,10,04,15,29,17.70
2014,10,04,15,30,17.70
2014,10,04,15,31,17.80
2014,10,04,15,32,17.80
2014,10,04,15,33,17.70
2014,10,04,15,34,17.70
2014,10,04,15,35,17.70
2014,10,04,15,36,17.70
2014,10,04,15,37,17.70
2014,10,04,15,38,17.70
2014,10,04,15,39,17.80
2014,10,04,15,40,17.80
2014,10,04,15,41,17.80
2014,10,04,15,42,17.80
2014,10,04,15,43,17.80
2014,10,04,15,44,17.80
2014,10,04,15,45,17.70
2014,10,04,15,46,17.70
2014,10,04,15,47,17.80
2014,10,04,15,48,17.70
2014,10,04,15,49,17.70
2014,10,04,15,50,17.70
2014,10,04,15,51,17.70
2014,10,04,15,52,17.80
2014,10,04,15,53,17.80
2014,10,04,15,54,17.80
2014,10,04,15,55,17.70
2014,10,04,15,56,17.70
2014,10,04,15,57,17.70
2014,10,04,15,58,17.80
2014,10,04,15,59,17.80
2014,10,04,16,00,17.80
2014,10,04,16,01,17.80
2014,10,04,16,02,17.80
2014,10,04,16,03,17.80
2014,10,04,16,04,17.80
2014,10,04,16,05,17.80
2014,10,04,16,06,17.80
2014,10,04,16,07,17.80
2014,10,04,16,08,17.80
2014,10,04,16,09,17.70
2014,10,04,16,10,17.70
2014,10,04,16,11,17.60
2014,10,04,16,12,17.60
2014,10,04,16,13,17.60
2014,10,04,16,14,17.60
2014,10,04,16,15,17.60
2014,10,04,16,16,17.60
2014,10,04,16,17,17.60
2014,10,04,16,18,17.60
2014,10,04,16,19,17.60
2014,10,04,16,20,17.60
2014,10,04,16,21,17.60
2014,10,04,16,22,17.60
2014,10,04,16,23,17.60
2014,10,04,16,24,17.60
2014,10,04,16,25,17.60
2014,10,04,16,26,17.60
2014,10,04,16,27,17.60
2014,10,04,16,28,17.70
2014,10,04,16,29,17.60
2014,10,04,16,30,17.70
2014,10,04,16,31,17.70
2014,10,04,16,32,17.70
2014,10,04,16,33,17.70
2014,10,04,16,34,17.70
2014,10,04,16,35,17.70
2014,10,04,16,36,17.70
2014,10,04,16,37,17.70
2014,10,04,16,38,17.70
2014,10,04,16,39,17.70
2014,10,04,16,40,17.70
2014,10,04,16,41,17.70
2014,10,04,16,42,17.70
2014,10,04,16,43,17.60
2014,10,04,16,44,17.60
2014,10,04,16,45,17.60
2014,10,04,16,46,17.60
2014,10,04,16,47,17.60
2014,10,04,16,48,17.60
2014,10,04,16,49,17.60
2014,10,04,16,50,17.60
2014,10,04,16,51,17.60
2014,10,04,16,52,17.60
2014,10,04,16,53,17.60
2014,10,04,16,54,17.60
2014,10,04,16,55,17.60
2014,10,04,16,56,17.60
2014,10,04,16,57,17.60
2014,10,04,16,58,17.60
2014,10,04,16,59,17.60
2014,10,04,17,00,17.60
2014,10,04,17,01,17.60
2014,10,04,17,02,17.60
2014,10,04,17,03,17.60
2014,10,04,17,04,17.60
2014,10,04,17,05,17.60
2014,10,04,17,06,17.60
2014,10,04,17,07,17.60
2014,10,04,17,08,17.60
2014,10,04,17,09,17.60
2014,10,04,17,10,17.70
2014,10,04,17,11,17.70
2014,10,04,17,12,17.70
2014,10,04,17,13,17.70
2014,10,04,17,14,17.70
2014,10,04,17,15,17.60
2014,10,04,17,16,17.70
2014,10,04,17,17,17.70
2014,10,04,17,18,17.70
2014,10,04,17,19,17.70
2014,10,04,17,20,17.70
2014,10,04,17,21,17.70
2014,10,04,17,22,17.70